Change the Weather History Date:

Wednesday, February 20, 2013

  Actual Average (KOFK) Record (KOFK)
Temperature  
Mean Temperature 15 °F 28 °F  
Max Temperature 25 °F 38 °F 66 °F (1930)
Min Temperature 5 °F 18 °F -16 °F (1918)
Degree Days  
Heating Degree Days 50 37  
Month to date heating degree days 787  
Since 1 July heating degree days 4809  
Cooling Degree Days 0 0  
Month to date cooling degree days 0  
Year to date cooling degree days 0  
Moisture  
Dew Point 4 °F    
Average Humidity 64    
Maximum Humidity 85    
Minimum Humidity 37    
Precipitation  
Precipitation 0.02 in 0.03 in 0.53 in (1962)
Month to date precipitation 0.51  
Year to date precipitation 1.10  
Snow  
Snow 0.00 in 0.20 in - ()
Month to date snowfall 4.1  
Since 1 July snowfall 21.4  
Snow Depth -    
Sea Level Pressure  
Sea Level Pressure 30.21 in    
Wind  
Wind Speed 8 mph (ESE)    
Max Wind Speed 18 mph    
Max Gust Speed 22 mph    
Visibility 9 miles    
Events Snow    
T = Trace of Precipitation, MM = Missing Value Source: NWS Daily Summary

Daily Weather History Graph

Daily Weather History Graph

Search for Another Location

Airport or City:

Trip Planner

Search our weather history database for the weather conditions in past years. The results will help you decide how hot, cold, wet, or windy it might be!

Date:

Astronomy

Feb. 20, 2013 Rise Set
Actual Time 7:20 AM CST 6:12 PM CST
Civil Twilight 6:52 AM CST 6:40 PM CST
Nautical Twilight 6:19 AM CST 7:12 PM CST
Astronomical Twilight 5:47 AM CST 7:44 PM CST
Moon 1:32 PM CST (2/20) 3:44 AM CST (2/20)
Length of Visible Light 11h 48m
Length of Day
10h 51m
Waxing Gibbous, 76% of the Moon is Illuminated
Feb 20
Waxing Gibbous
Feb 25
Full
Mar 4
Last Quarter
Mar 11
New
Mar 19
First Quarter

Hourly Weather History & Observations

Time (CST) Temp. Windchill Dew Point Humidity Pressure Visibility Wind Dir Wind Speed Gust Speed Precip Events Conditions
12:15 AM 9.1 °F - 0.7 °F 69% 30.31 in 10.0 mi Calm Calm - N/A   Clear
12:35 AM 8.1 °F 1.4 °F 0.7 °F 72% 30.31 in 10.0 mi NNW 3.5 mph - N/A   Clear
12:55 AM 8.4 °F 1.8 °F 0.9 °F 71% 30.31 in 10.0 mi NNE 3.5 mph - N/A   Clear
1:15 AM 8.4 °F 1.8 °F 1.4 °F 73% 30.31 in 10.0 mi NE 3.5 mph - N/A   Clear
1:35 AM 9.3 °F -2.8 °F 1.4 °F 70% 30.30 in 10.0 mi ENE 8.1 mph - N/A   Clear
1:55 AM 8.6 °F 0.1 °F 1.4 °F 73% 30.30 in 10.0 mi ENE 4.6 mph - N/A   Clear
2:15 AM 8.2 °F - 1.0 °F 72% 30.30 in 10.0 mi Calm Calm - N/A   Clear
2:35 AM 7.7 °F - 0.9 °F 74% 30.29 in 10.0 mi Calm Calm - N/A   Clear
2:55 AM 7.5 °F - 0.5 °F 73% 30.29 in 10.0 mi Calm Calm - N/A   Clear
3:15 AM 7.2 °F -1.5 °F 0.5 °F 74% 30.28 in 10.0 mi ENE 4.6 mph - N/A   Clear
3:35 AM 6.8 °F -0.1 °F 0.1 °F 74% 30.26 in 10.0 mi ENE 3.5 mph - N/A   Scattered Clouds
3:55 AM 6.8 °F -2.0 °F -0.0 °F 74% 30.26 in 10.0 mi East 4.6 mph - N/A   Scattered Clouds
4:15 AM 6.8 °F -2.0 °F -0.2 °F 73% 30.26 in 10.0 mi East 4.6 mph - N/A   Clear
4:35 AM 6.6 °F -7.1 °F -0.4 °F 73% 30.25 in 10.0 mi ENE 9.2 mph - N/A   Clear
4:55 AM 6.4 °F -5.2 °F -0.4 °F 74% 30.25 in 10.0 mi East 6.9 mph - N/A   Clear
5:15 AM 5.9 °F -4.5 °F -0.6 °F 75% 30.25 in 10.0 mi East 5.8 mph - N/A   Clear
5:35 AM 6.1 °F -2.8 °F -0.4 °F 75% 30.25 in 10.0 mi ESE 4.6 mph - N/A   Clear
5:55 AM 6.4 °F -3.9 °F -0.4 °F 74% 30.25 in 10.0 mi East 5.8 mph - N/A   Clear
6:15 AM 6.4 °F -2.4 °F -0.4 °F 74% 30.25 in 10.0 mi East 4.6 mph - N/A   Scattered Clouds
6:35 AM 6.3 °F -5.4 °F -1.1 °F 72% 30.25 in 10.0 mi East 6.9 mph - N/A   Overcast
6:55 AM 6.3 °F -6.5 °F -1.1 °F 72% 30.26 in 10.0 mi ESE 8.1 mph - N/A   Overcast
7:35 AM 6.6 °F -7.1 °F -0.8 °F 72% 30.26 in 10.0 mi ESE 9.2 mph - N/A   Overcast
7:55 AM 6.6 °F -7.1 °F -0.8 °F 72% 30.26 in 10.0 mi ESE 9.2 mph - N/A   Overcast
8:15 AM 7.3 °F -5.2 °F -0.4 °F 71% 30.26 in 10.0 mi ESE 8.1 mph - N/A   Overcast
8:35 AM 8.2 °F -5.1 °F 0.1 °F 70% 30.26 in 10.0 mi ESE 9.2 mph - N/A   Overcast
8:55 AM 8.4 °F -6.5 °F -0.0 °F 68% 30.27 in 10.0 mi ESE 11.5 mph - N/A   Mostly Cloudy
9:15 AM 9.3 °F -5.4 °F 0.5 °F 67% 30.27 in 10.0 mi ESE 11.5 mph - N/A   Scattered Clouds
9:35 AM 10.0 °F -3.7 °F 0.7 °F 66% 30.27 in 10.0 mi ESE 10.4 mph - N/A   Scattered Clouds
9:55 AM 11.7 °F -2.5 °F 1.2 °F 63% 30.27 in 10.0 mi ESE 11.5 mph - N/A   Scattered Clouds
10:15 AM 12.7 °F -0.4 °F 1.6 °F 61% 30.27 in 10.0 mi SE 10.4 mph - N/A   Scattered Clouds
10:35 AM 13.8 °F 0.2 °F 1.8 °F 59% 30.27 in 10.0 mi SE 11.5 mph - N/A   Mostly Cloudy
10:55 AM 14.9 °F 0.9 °F 2.3 °F 57% 30.27 in 10.0 mi ESE 12.7 mph - N/A   Mostly Cloudy
11:15 AM 15.8 °F 1.4 °F 2.3 °F 55% 30.27 in 10.0 mi SE 13.8 mph - N/A   Mostly Cloudy
11:55 AM 16.9 °F 4.1 °F 3.0 °F 55% 30.26 in 10.0 mi SE 11.5 mph - N/A   Mostly Cloudy
12:15 PM 18.1 °F 3.9 °F 3.2 °F 52% 30.24 in 10.0 mi ESE 15.0 mph - N/A   Overcast
12:35 PM 19.9 °F 6.7 °F 3.9 °F 50% 30.23 in 10.0 mi SE 13.8 mph 18.4 mph N/A   Overcast
12:55 PM 21.2 °F 7.3 °F 3.7 °F 47% 30.22 in 10.0 mi SE 16.1 mph 19.6 mph N/A   Overcast
1:15 PM 21.4 °F 8.5 °F 3.4 °F 46% 30.20 in 10.0 mi ESE 13.8 mph 19.6 mph N/A   Overcast
1:35 PM 21.6 °F 8.8 °F 3.6 °F 46% 30.19 in 10.0 mi ESE 13.8 mph - N/A   Overcast
1:55 PM 22.5 °F 10.5 °F 4.1 °F 45% 30.19 in 10.0 mi ESE 12.7 mph - N/A   Overcast
2:15 PM 23.5 °F 12.4 °F 4.1 °F 43% 30.18 in 10.0 mi SE 11.5 mph - N/A   Overcast
2:35 PM 24.4 °F 12.4 °F 3.9 °F 41% 30.16 in 10.0 mi ESE 13.8 mph - N/A   Overcast
2:55 PM 25.0 °F 13.6 °F 3.2 °F 39% 30.16 in 10.0 mi ESE 12.7 mph - N/A   Overcast
3:15 PM 25.2 °F 13.3 °F 3.2 °F 39% 30.15 in 10.0 mi ESE 13.8 mph - N/A   Overcast
3:35 PM 25.2 °F 12.9 °F 2.5 °F 38% 30.15 in 10.0 mi ESE 15.0 mph 18.4 mph N/A   Overcast
3:55 PM 25.5 °F 12.4 °F 2.1 °F 37% 30.14 in 10.0 mi SE 17.3 mph - N/A   Overcast
4:15 PM 25.3 °F 12.2 °F 2.1 °F 37% 30.13 in 10.0 mi SE 17.3 mph 21.9 mph N/A   Overcast
4:35 PM 25.3 °F 13.6 °F 2.3 °F 37% 30.13 in 10.0 mi SE 13.8 mph - N/A   Overcast
4:55 PM 25.3 °F 14.1 °F 2.3 °F 37% 30.12 in 10.0 mi ESE 12.7 mph - N/A   Overcast
5:15 PM 24.8 °F 11.5 °F 1.9 °F 37% 30.13 in 10.0 mi ESE 17.3 mph - N/A   Overcast
5:35 PM 24.3 °F 12.2 °F 2.5 °F 39% 30.12 in 10.0 mi ESE 13.8 mph - N/A   Overcast
5:55 PM 23.7 °F 11.0 °F 2.3 °F 40% 30.12 in 10.0 mi ESE 15.0 mph - N/A   Overcast
6:15 PM 23.2 °F 10.8 °F 2.5 °F 41% 30.12 in 10.0 mi ESE 13.8 mph - N/A   Overcast
6:35 PM 23.0 °F 10.6 °F 3.2 °F 43% 30.13 in 10.0 mi ESE 13.8 mph - N/A   Overcast
6:55 PM 22.6 °F 10.1 °F 4.5 °F 46% 30.13 in 7.0 mi ESE 13.8 mph 18.4 mph N/A Snow Light Snow
7:15 PM 21.4 °F 8.5 °F 10.2 °F 62% 30.13 in 3.0 mi ESE 13.8 mph - N/A Snow Light Snow
7:35 PM 20.3 °F 9.8 °F 13.5 °F 75% 30.13 in 1.8 mi ESE 9.2 mph - N/A Snow Light Snow
7:55 PM 20.3 °F 9.0 °F 14.5 °F 78% 30.13 in 5.0 mi ESE 10.4 mph - N/A Snow Light Snow
8:15 PM 20.3 °F 9.0 °F 15.6 °F 82% 30.13 in 2.5 mi ESE 10.4 mph - N/A Snow Light Snow
8:35 PM 20.3 °F 9.0 °F 16.2 °F 84% 30.13 in 1.2 mi ESE 10.4 mph - N/A Snow Light Snow
8:55 PM 20.3 °F 7.7 °F 16.5 °F 85% 30.13 in 1.0 mi ESE 12.7 mph - N/A Snow Light Snow
9:15 PM 20.3 °F 7.2 °F 16.5 °F 85% 30.13 in 1.5 mi ESE 13.8 mph - N/A Snow Light Snow
9:35 PM 20.3 °F 5.2 °F 16.0 °F 83% 30.15 in 1.5 mi ESE 18.4 mph - N/A Snow Light Snow
9:55 PM 19.9 °F 6.7 °F 15.6 °F 83% 30.15 in 1.0 mi ESE 13.8 mph 20.7 mph N/A Snow Light Snow
10:15 PM 19.8 °F 5.9 °F 15.4 °F 83% 30.15 in 1.2 mi ESE 15.0 mph 20.7 mph 0.01 in Snow Light Snow
10:35 PM 19.8 °F 7.1 °F 15.6 °F 84% 30.15 in 2.5 mi ESE 12.7 mph - 0.01 in Snow Light Snow
10:55 PM 19.9 °F 7.9 °F 15.6 °F 83% 30.16 in 5.0 mi ESE 11.5 mph - 0.02 in Snow Light Snow
11:15 PM 20.1 °F 10.3 °F 15.3 °F 81% 30.15 in 10.0 mi ESE 8.1 mph - N/A Snow Light Snow
11:35 PM 20.3 °F 10.6 °F 15.1 °F 80% 30.15 in 10.0 mi East 8.1 mph - N/A   Overcast
11:55 PM 20.7 °F 9.5 °F 14.4 °F 77% 30.13 in 10.0 mi East 10.4 mph - N/A Snow Light Snow